FW0152 Weather Reports


time (UTC)temp
C
wind
direction
speed
KPH
gust
KPH
rain 1hr
cm
rain 24hr
cm
rain mn
cm
humidity
%
barometer
mb
20260505031541 10 0 0.0 8.0 0.00 0.00 0.00 80 1012.1
20260505031025 10 159 0.0 8.0 0.00 0.00 0.00 80 1012.0
20260505030527 10 236 1.6 12.9 0.00 0.00 0.00 79 1012.2
20260505030038 10 167 0.0 12.9 0.00 0.00 0.00 80 1012.2
20260505025529 10 277 1.6 6.4 0.00 0.00 0.00 79 1012.2
20260505025026 10 211 1.6 6.4 0.00 0.00 0.00 79 1012.2
20260505024536 10 0 1.6 6.4 0.00 0.00 0.00 79 1012.2
20260505024023 10 151 0.0 8.0 0.00 0.00 0.00 79 1012.2
20260505023526 10 0 1.6 8.0 0.00 0.00 0.00 78 1012.2
20260505023047 10 256 1.6 8.0 0.00 0.00 0.00 78 1012.3
20260505022529 11 209 1.6 6.4 0.00 0.00 0.00 78 1012.2
20260505022026 11 219 1.6 8.0 0.00 0.00 0.00 78 1012.3
20260505021536 11 0 1.6 8.0 0.00 0.00 0.00 77 1012.3
20260505021029 11 185 1.6 8.0 0.00 0.00 0.00 77 1012.4
20260505020526 11 0 1.6 9.7 0.00 0.00 0.00 77 1012.4
20260505020048 11 360 1.6 9.7 0.00 0.00 0.00 76 1012.3
20260505015526 11 212 0.0 4.8 0.00 0.00 0.00 76 1012.3
20260505015026 11 0 0.0 12.9 0.00 0.00 0.00 75 1012.3
20260505014540 11 159 0.0 12.9 0.00 0.00 0.00 75 1012.3
20260505014025 11 360 1.6 12.9 0.00 0.00 0.00 75 1012.3
20260505013526 11 360 1.6 6.4 0.00 0.00 0.00 75 1012.2
20260505013037 11 360 0.0 17.7 0.00 0.00 0.00 74 1012.1
20260505012526 11 158 1.6 17.7 0.00 0.00 0.00 74 1012.0
20260505012026 11 225 3.2 17.7 0.00 0.00 0.00 74 1012.0
20260505011537 11 229 3.2 11.3 0.00 0.00 0.00 73 1011.8
20260505011026 11 179 1.6 8.0 0.00 0.00 0.00 73 1011.9
20260505010526 11 227 3.2 9.7 0.00 0.00 0.00 73 1011.8
20260505010042 11 28 1.6 11.3 0.00 0.00 0.00 72 1011.6
20260505005526 12 170 3.2 11.3 0.00 0.00 0.00 72 1011.6
20260505005026 12 182 1.6 19.3 0.00 0.00 0.00 72 1011.4
20260505004547 12 242 3.2 19.3 0.00 0.00 0.00 71 1011.4
20260505004024 12 234 3.2 14.5 0.00 0.00 0.00 71 1011.4
20260505003525 12 239 3.2 14.5 0.00 0.00 0.00 71 1011.2
20260505003040 12 209 4.8 14.5 0.00 0.00 0.00 70 1011.1
20260505002526 12 193 3.2 17.7 0.00 0.00 0.00 70 1011.1
20260505002026 12 136 4.8 17.7 0.00 0.00 0.00 69 1010.9
20260505001537 12 236 3.2 16.1 0.00 0.00 0.00 68 1010.8
20260505001029 12 207 6.4 16.1 0.00 0.00 0.00 68 1010.8
20260505000528 12 312 3.2 14.5 0.00 0.00 0.00 67 1010.6
20260505000037 13 230 4.8 19.3 0.00 0.00 0.00 66 1010.8
20260504235526 13 221 4.8 19.3 0.00 0.00 0.00 66 1010.5
20260504235027 13 167 3.2 11.3 0.00 0.00 0.00 65 1010.5
20260504234600 13 221 4.8 11.3 0.00 0.00 0.00 64 1010.4
20260504234023 13 229 4.8 12.9 0.00 0.00 0.00 63 1010.4
20260504233526 13 120 1.6 12.9 0.00 0.00 0.00 62 1010.3
20260504233040 13 237 3.2 17.7 0.00 0.00 0.00 61 1010.6
20260504232526 13 360 3.2 17.7 0.00 0.00 0.00 61 1010.3
20260504232022 13 360 4.8 19.3 0.00 0.00 0.00 60 1010.3
20260504231550 13 164 4.8 20.9 0.00 0.00 0.00 59 1010.2
20260504231025 14 207 6.4 20.9 0.00 0.00 0.00 58 1010.1
20260504230526 14 160 6.4 20.9 0.00 0.00 0.00 57 1010.0
20260504230040 14 360 6.4 17.7 0.00 0.00 0.00 56 1010.1
20260504225528 14 211 6.4 17.7 0.00 0.00 0.00 55 1010.1
20260504225029 15 360 4.8 17.7 0.00 0.00 0.00 54 1010.0
20260504224537 15 360 3.2 12.9 0.00 0.00 0.00 53 1010.2
20260504224026 15 360 3.2 12.9 0.00 0.00 0.00 52 1010.1
20260504223526 15 360 1.6 14.5 0.00 0.00 0.00 51 1009.9
20260504223039 15 360 3.2 14.5 0.00 0.00 0.00 49 1010.0
20260504222528 16 229 4.8 16.1 0.00 0.00 0.00 48 1009.9
20260504222026 16 211 4.8 16.1 0.00 0.00 0.00 46 1009.8
20260504221547 16 218 4.8 14.5 0.00 0.00 0.00 45 1009.8
20260504221031 16 206 3.2 14.5 0.00 0.00 0.00 44 1009.8
20260504220526 16 192 6.4 14.5 0.00 0.00 0.00 44 1009.9
20260504220042 17 175 4.8 12.9 0.00 0.00 0.00 44 1009.8
20260504215526 17 196 4.8 12.9 0.00 0.00 0.00 43 1010.0
20260504215027 17 189 4.8 12.9 0.00 0.00 0.00 42 1009.9
20260504214541 17 315 3.2 16.1 0.00 0.00 0.00 48 1009.9
20260504214026 17 339 4.8 16.1 0.00 0.00 0.00 42 1009.8
20260504213531 17 174 3.2 11.3 0.00 0.00 0.00 42 1009.8
20260504213037 17 220 3.2 24.1 0.00 0.00 0.00 43 1009.8
20260504212528 17 248 6.4 24.1 0.00 0.00 0.00 42 1009.7
20260504212030 18 178 4.8 16.1 0.00 0.00 0.00 42 1009.7
20260504211539 18 260 4.8 16.1 0.00 0.00 0.00 42 1009.6
20260504211026 18 184 6.4 16.1 0.00 0.00 0.00 42 1009.6
20260504210526 18 186 4.8 17.7 0.00 0.00 0.00 41 1009.7
20260504210037 18 213 4.8 17.7 0.00 0.00 0.00 41 1009.6
20260504205529 18 159 3.2 29.0 0.00 0.00 0.00 40 1009.6
20260504205025 18 124 4.8 29.0 0.00 0.00 0.00 40 1009.5
20260504204618 19 294 6.4 29.0 0.00 0.00 0.00 39 1009.4
20260504204026 19 216 4.8 14.5 0.00 0.00 0.00 43 1009.5
20260504203528 19 257 4.8 17.7 0.00 0.00 0.00 38 1009.4
20260504203040 19 28 8.0 17.7 0.00 0.00 0.00 37 1009.4
20260504202527 19 72 4.8 32.2 0.00 0.00 0.00 38 1009.3
20260504202026 20 223 6.4 32.2 0.00 0.00 0.00 36 1009.5
20260504201538 20 228 3.2 27.4 0.00 0.00 0.00 36 1009.5
20260504201026 20 294 9.7 27.4 0.00 0.00 0.00 35 1009.3
20260504200527 20 146 9.7 27.4 0.00 0.00 0.00 36 1009.4
20260504200041 20 186 4.8 24.1 0.00 0.00 0.00 42 1009.4
20260504195527 20 123 3.2 24.1 0.00 0.00 0.00 36 1009.5
20260504195026 20 200 8.0 24.1 0.00 0.00 0.00 35 1009.4
20260504194546 20 237 3.2 14.5 0.00 0.00 0.00 35 1009.5
20260504194029 20 171 4.8 17.7 0.00 0.00 0.00 34 1009.4
20260504193525 20 158 6.4 33.8 0.00 0.00 0.00 34 1009.4
20260504193039 20 313 9.7 33.8 0.00 0.00 0.00 38 1009.3
20260504192528 20 306 6.4 16.1 0.00 0.00 0.00 33 1009.5
20260504192026 20 236 6.4 24.1 0.00 0.00 0.00 34 1009.5
20260504191538 20 337 4.8 24.1 0.00 0.00 0.00 35 1009.5
20260504191027 20 180 4.8 17.7 0.00 0.00 0.00 34 1009.6
20260504190559 20 194 4.8 20.9 0.00 0.00 0.00 33 1009.7
20260504190042 19 225 8.0 22.5 0.00 0.00 0.00 32 1009.7
20260504185526 20 232 8.0 25.7 0.00 0.00 0.00 32 1009.7
20260504185027 20 225 6.4 25.7 0.00 0.00 0.00 31 1009.9
20260504184546 20 196 9.7 17.7 0.00 0.00 0.00 30 1009.8
20260504184027 20 275 4.8 19.3 0.00 0.00 0.00 31 1009.9
20260504183526 20 249 8.0 27.4 0.00 0.00 0.00 30 1010.0
20260504183037 20 219 8.0 27.4 0.00 0.00 0.00 31 1010.0
20260504182528 20 290 4.8 19.3 0.00 0.00 0.00 33 1010.0
20260504182029 20 246 6.4 19.3 0.00 0.00 0.00 38 1010.1
20260504181542 20 323 8.0 19.3 0.00 0.00 0.00 31 1010.1
20260504181026 20 180 3.2 32.2 0.00 0.00 0.00 31 1010.1
20260504180527 20 225 6.4 32.2 0.00 0.00 0.00 32 1010.1
20260504180040 20 254 4.8 30.6 0.00 0.00 0.00 30 1009.9
20260504175525 20 275 8.0 22.5 0.00 0.00 0.00 30 1010.0
20260504175027 20 228 8.0 24.1 0.00 0.00 0.00 30 1010.0
20260504174539 20 238 9.7 25.7 0.00 0.00 0.00 35 1010.0
20260504174026 20 275 11.3 25.7 0.00 0.00 0.00 29 1010.0
20260504173528 20 244 9.7 24.1 0.00 0.00 0.00 28 1009.9
20260504173038 20 252 8.0 24.1 0.00 0.00 0.00 28 1009.9
20260504172526 20 186 8.0 24.1 0.00 0.00 0.00 28 1010.0
20260504172026 20 24 6.4 22.5 0.00 0.00 0.00 30 1010.1
20260504171544 20 201 6.4 27.4 0.00 0.00 0.00 27 1010.1
20260504171024 20 225 9.7 27.4 0.00 0.00 0.00 33 1010.2
20260504170526 20 117 9.7 22.5 0.00 0.00 0.00 29 1010.2
20260504151030 20 168 8.0 17.7 0.00 0.00 0.00 31 1011.1
20260504150527 19 325 8.0 25.7 0.00 0.00 0.00 35 1011.0
20260504141029 18 32 3.2 12.9 0.00 0.00 0.00 40 1011.5
20260504140527 18 0 4.8 12.9 0.00 0.00 0.00 40 1011.5
20260504130525 16 220 3.2 14.5 0.00 0.00 0.00 39 1012.1
20260504110527 8 0 0.0 4.8 0.00 0.00 0.00 69 1012.2
20260504100526 6 0 0.0 3.2 0.00 0.00 0.00 69 1012.1
20260504081539 6 242 0.0 1.6 0.00 0.00 0.00 66 1011.7
20260504081026 6 0 0.0 1.6 0.00 0.00 0.00 66 1011.7
20260504080529 6 0 0.0 1.6 0.00 0.00 0.00 66 1011.8
20260504050528 4 0 0.0 3.2 0.00 0.00 0.00 64 1011.6
20260504045526 4 292 0.0 0.0 0.00 0.00 0.00 63 1011.7
20260504045025 4 0 0.0 0.0 0.00 0.00 0.00 63 1011.7
20260504044541 4 0 0.0 0.0 0.00 0.00 0.00 63 1011.8
20260504044025 4 0 0.0 0.0 0.00 0.00 0.00 63 1011.7
20260504043527 4 0 0.0 0.0 0.00 0.00 0.00 62 1011.8
20260504043039 3 0 0.0 0.0 0.00 0.00 0.00 63 1011.8
20260504042528 4 0 0.0 0.0 0.00 0.00 0.00 63 1011.8
20260504042031 4 0 0.0 0.0 0.00 0.00 0.00 63 1011.7
20260504041539 4 0 0.0 0.0 0.00 0.00 0.00 62 1011.6
20260504041027 4 0 0.0 0.0 0.00 0.00 0.00 62 1011.6
20260504040529 4 0 0.0 0.0 0.00 0.00 0.00 63 1011.7
20260504040038 4 0 0.0 0.0 0.00 0.00 0.00 63 1011.7
20260504035527 4 0 0.0 0.0 0.00 0.00 0.00 62 1011.7
20260504035027 4 0 0.0 0.0 0.00 0.00 0.00 62 1011.6
20260504034546 4 0 0.0 0.0 0.00 0.00 0.00 62 1011.5
20260504034026 5 0 0.0 0.0 0.00 0.00 0.00 61 1011.5
20260504033529 5 0 0.0 0.0 0.00 0.00 0.00 61 1011.5
20260504033038 5 0 0.0 0.0 0.00 0.00 0.00 60 1011.4
20260504032528 5 0 0.0 0.0 0.00 0.00 0.00 59 1011.4
20260504032024 5 0 0.0 1.6 0.00 0.00 0.00 59 1011.3